Showing default

NEONSAT-1, 59587

Orbit data source: Space-Track

NEONSAT-1, 59587 is a payload satellite owned by KAIST (KR) in SSO that was launched on Tue, 23 Apr 2024 UTC via an ELECTRON launch vehicle from the Rocket Lab Launch Complex (RLLC). Payload-class satellites include a variety of spacecraft equipped with specific instruments for various scientific and technological missions. These include communications satellites like Starlink; space stations such as the ISS; scientific satellites like the Hubble; Earth observation satellites from companies like Planet Labs, Umbra, and HawkEye 360; GPS; miniature CubeSats for education and research; and military/defense satellites.

Loading next visibility...
Identifier
59587, 2024-077A
Orbit
SSO
Country
Flag of UnknownUnknown / SKOR
Related business
Manufacturer
KAIST/SATRHW
Mission
Operational spacecraft
Bus & Motor
NEONSAT, Unknown motor
Mass
~100 kg wet, ~100 kg dry
Launch date (UTC)
2024-04-23 (1 year ago)
Launch vehicle
ELECTRON
Launch site
Rocket Lab Launch Complex (RLLC)
Object type
Payload
Rocket body
Debris
Shape & HBR
Unknown
Radar Cross Section
Medium (>0.1 m² and <1 m²)

Expand to show TLE details & history
Last TLE update: 11 hours ago

TLE from 11 hours ago
0 NEONSAT-1
1 59587U 24077A   25258.31316275  .00014143  00000-0  47931-3 0  9994
2 59587  97.3730 337.9897 0009614 297.4932  62.5331 15.30624086 77578
Epoch: 2025-09-15T07:30Z
TLE epoch observation values (Epoch: 2025-09-15T07:30:57.261Z)
Latitude
-0.00006°
Longitude
-129.26849°
Altitude
474.021 km
Speed
7.631 km/s
True Right ascension
22h 31m 57s
True Declination
0° 00' 00"
Sunlit
Object was in full shadow at epoch
Visualization orbit readout
Latitude
Unknown
Longitude
Unknown
Altitude
Unknown
Speed
Unknown
Apparent Right ascension
Unknown
Apparent Declination
Unknown
Sunlit
N/A
Visualization observer readout
Local Sidereal Time
11:01:41
Azimuth
Unknown
Elevation
Unknown
Doppler factor
Unknown
Orbital elements
Apogee altitude
477.484 km
Perigee altitude
464.315 km
Semi-major axis
6,849.036 km
Eccentricity
0.00096
Inclination
97.373°
RAAN
337.9897°
Arg. of periapsis
297.4932°
True anomaly
62.6309°
Mean anomaly
62.5331°
Eccentric anomaly
62.582°
Mean motion
3.82912 °/min
Orbital period
94.02 mins
BSTAR
0.00047931
Loading maneuver chart data...
Computing Atmospheric mass density...
Loading historical data...
Loading historical data...
Loading historical data...
Loading historical data...
Loading historical data...
Loading historical data...
Loading historical data...
Other satellites on launch #77 in the year 2024 (2024-04-23 UTC)

Documentation

Showing up to 5 results
|